Location: Bo?a Wola
(50.4192°N, 19.7966°E)
Time: 07:37:04
(UTC+00:00)

SL-16 R/B - Visible Passes

Search period start: 08 September 2024 00:00
Search period end: 18 September 2024 00:00
Orbit: 985 x 1006 km, 99.7° (Epoch: 08 September)

Date Brightness Start Highest point End Pass type
(mag) Time Alt. Az. Time Alt. Az. Time Alt. Az.
08 Sep 3.8 00:13:19 11° ESE 00:18:36 37° ENE 00:24:14 10° N visible
08 Sep 2.7 01:58:24 24° SSW 02:02:01 50° W 02:08:06 10° NNW visible
08 Sep 5.1 23:03:38 10° ENE 23:06:48 15° NE 23:09:58 10° NNE visible
09 Sep 3.1 00:44:39 19° SE 00:49:07 56° ENE 00:55:14 10° N visible
09 Sep 3.2 02:29:44 20° SW 02:33:01 31° W 02:38:31 10° NNW visible
09 Sep 4.7 23:32:31 10° E 23:37:00 21° NE 23:41:30 10° N visible
10 Sep 2.5 01:16:00 26° SSE 01:19:47 87° ENE 01:26:05 10° NNW visible
10 Sep 3.8 03:01:05 14° WSW 03:04:10 19° W 03:08:32 10° NW visible
11 Sep 4.1 00:02:15 11° ESE 00:07:21 32° ENE 00:12:44 10° N visible
11 Sep 2.5 01:47:20 29° S 01:50:35 60° WSW 01:56:48 10° NNW visible
11 Sep 4.2 03:33:49 10° W 03:35:29 11° W 03:37:09 10° WNW visible
11 Sep 5.2 22:53:14 10° ENE 22:55:40 13° NE 22:58:07 10° NNE visible
12 Sep 3.4 00:33:35 19° SE 00:37:50 48° ENE 00:43:46 10° N visible
12 Sep 3.0 02:18:41 25° SW 02:21:32 38° W 02:27:19 10° NNW visible
12 Sep 4.8 23:21:45 10° E 23:25:49 19° NE 23:29:54 10° N visible
13 Sep 2.6 01:04:57 28° SSE 01:08:26 74° ENE 01:14:41 10° NNW visible
13 Sep 3.6 02:50:02 18° WSW 02:52:38 23° W 02:57:31 10° NW visible
13 Sep 4.3 23:51:12 11° ESE 23:56:07 27° NE 00:01:13 10° N visible
14 Sep 2.4 01:36:18 34° S 01:39:11 72° WSW 01:45:28 10° NNW visible
14 Sep 4.1 03:21:24 11° WSW 03:23:52 14° W 03:26:59 10° NW visible
14 Sep 5.3 22:43:12 10° NE 22:44:33 11° NE 22:45:55 10° NNE visible
15 Sep 3.6 00:22:34 19° ESE 00:26:32 41° ENE 00:32:19 10° N visible
15 Sep 2.8 02:07:39 31° SSW 02:10:04 45° W 02:16:04 10° NNW visible
15 Sep 5.0 23:11:06 10° E 23:14:39 16° NE 23:18:14 10° N visible
16 Sep 2.9 00:53:55 30° SE 00:57:05 63° ENE 01:03:16 10° NNW visible
16 Sep 3.4 02:39:01 23° SW 02:41:06 28° W 02:46:25 10° NW visible
16 Sep 4.5 23:40:11 10° ESE 23:44:54 24° NE 23:49:40 10° N visible
17 Sep 2.4 01:25:17 39° SSE 01:27:48 85° WSW 01:34:06 10° NNW visible
17 Sep 3.9 03:10:23 15° WSW 03:12:17 17° W 03:16:15 10° NW visible
17 Sep 5.4 17:30:20 10° NNW 17:32:17 12° NW 17:34:13 10° WNW visible
